Home > Time Zones > World Clock > Weather > Peru > Ica > Past weeks

Flag for Peru Weather past 2 weeks in Ica, Ica, Peru

Now
64 °F

Overcast.


Feels Like: 64 °F
Forecast: 61 / 83 °F
Wind: 17 mph from Southwest

Location: Pisco Airport

Current Time: Oct 24, 2014 at 8:02:21 PM

Latest Report: Oct 24, 2014 at 7:00 PM


Visibility: N/A

Pressure: 29.92 "Hg

Humidity: 83%

Dew point: 59 °F

Location of IcaLocation

Historic Weather in Ica — Graph

°F

Ica temperature yesterday

Maximum temperature yesterday: 70 °F (at 2:00 PM)
Minimum temperature yesterday: 64 °F (at 2:00 AM)
Average temperature yesterday: 66 °F

Past Weeks' High & Low Weather Summary

 TemperatureHumidityPressure
High72 °F (Oct 11, 2:00 PM)94% (Oct 10, 4:00 AM)30.04 "Hg (Oct 10, 4:00 AM)
Low57 °F (Oct 18, 4:00 AM)61% (Oct 18, 3:00 PM)29.86 "Hg (Oct 9, 6:00 PM)
Average65 °F83%29.94 "Hg
* Reported Oct 9 6:00 PM — Oct 24 6:00 PM, Ica, Weather by CustomWeather, © 2014

Note: Actual official high and low records may vary slightly from our data, if they occured in-between our weather recording intervals... More about our weather records

Advertising

Ica weather history for previous 24 hours

 ConditionsComfort  
Time TempWeatherWind HumidityBarometerVisibility
6:00 PM
Oct 24
66 °FPartly sunny.20 mph73%29.89 "HgN/A
5:00 PM68 °FPassing clouds.21 mph69%29.89 "HgN/A
4:00 PM68 °FSunny.24 mph69%29.86 "Hg10 mi
3:00 PM70 °FSunny.23 mph69%29.86 "Hg10 mi
2:00 PM70 °FSunny.22 mph69%29.86 "Hg10 mi
1:00 PM72 °FPassing clouds.18 mph65%29.89 "HgN/A
12:00 PM70 °FPartly sunny.14 mph69%29.92 "HgN/A
11:00 AM70 °FPartly sunny.12 mph73%29.92 "HgN/A
10:00 AM68 °FMore clouds than sun.6 mph78%29.95 "HgN/A
9:00 AM66 °FMore clouds than sun.2 mph83%29.98 "Hg4 mi
8:00 AM64 °FFog.2 mph88%29.98 "Hg3 mi
7:00 AM64 °FFog.3 mph88%29.95 "Hg3 mi
6:00 AM63 °FMore clouds than sun.5 mph94%29.95 "Hg4 mi
5:00 AM63 °FMostly cloudy.3 mph94%29.92 "Hg4 mi
4:00 AM64 °FMostly cloudy.7 mph88%29.92 "Hg5 mi
3:00 AM64 °FMostly cloudy.7 mph88%29.92 "Hg5 mi
2:00 AM64 °FOvercast.6 mph88%29.95 "Hg5 mi
1:00 AM64 °FOvercast.5 mph88%29.95 "HgN/A
12:00 AM64 °FOvercast.9 mph88%30.01 "HgN/A
11:00 PM
Oct 23
64 °FOvercast.9 mph88%30.01 "HgN/A
10:00 PM64 °FOvercast.12 mph88%30.01 "HgN/A
9:00 PM64 °FOvercast.14 mph88%29.98 "HgN/A
8:00 PM64 °FOvercast.14 mph88%29.98 "HgN/A
Weather by CustomWeather, © 2014

See weather overviewHow to use our weather pages